QPF
0.00 0.00 0.00 0.00 0.00 0.00 0.00 0.00 0.01 0.01 0.01 0.01 0.01 0.02 0.02 0.05 0.03 0.03 0.05 0.04 0.02 0.01 0.00 0.00 0.00 0.00 0.00 0.00 0.00 0.00 0.00 0.00 0.00 0.00 0.00 0.00 0.00 0.00 0.00 0.00 0.00 0.00 0.00 0.00 0.00 0.00 0.00 0.00 0.00
0.00 0.00 0.00 0.00 0.00 0.00 0.01 0.00 0.01 0.02 0.01 0.02 0.03 0.04 0.02 0.02 0.01 0.02 0.04 0.03 0.02 0.01 0.01 0.00 0.00 0.00 0.00 0.00 0.00 0.00 0.00 0.00 0.00 0.00 0.00 0.00 0.00 0.00 0.00 0.00 0.00 0.00 0.00 0.00 0.00 0.00 0.00 0.00 0.00
0.00 0.00 0.00 0.00 0.00 0.00 0.02 0.02 0.02 0.04 0.03 0.02 0.03 0.04 0.03 0.08 0.05 0.02 0.03 0.02 0.02 0.01 0.01 0.00 0.00 0.00 0.00 0.00 0.00 0.00 0.00 0.00 0.00 0.00 0.00 0.00 0.00 0.00 0.00 0.00 0.00 0.00 0.00 0.00 0.00 0.00 0.00 0.00 0.00
0.00 0.00 0.00 0.00 0.00 0.00 0.01 0.02 0.04 0.05 0.04 0.06 0.04 0.02 0.03 0.09 0.05 0.02 0.02 0.02 0.02 0.01 0.00 0.00 0.00 0.00 0.00 0.00 0.00 0.00 0.00 0.00 0.00 0.00 0.00 0.00 0.00 0.00 0.00 0.00 0.00 0.00 0.00 0.00 0.00 0.00 0.00 0.00 0.00
0.00 0.00 0.00 0.00 0.00 0.01 0.02 0.03 0.03 0.04 0.07 0.11 0.09 0.07 0.06 0.07 0.04 0.02 0.01 0.02 0.02 0.01 0.00 0.00 0.00 0.00 0.01 0.01 0.01 0.00 0.01 0.01 0.01 0.00 0.00 0.00 0.00 0.00 0.00 0.00 0.00 0.00 0.00 0.00 0.00 0.00 0.00 0.00 0.00
0.00 0.00 0.00 0.00 0.01 0.01 0.02 0.02 0.03 0.05 0.08 0.08 0.09 0.12 0.09 0.07 0.04 0.02 0.02 0.02 0.02 0.01 0.00 0.00 0.00 0.00 0.01 0.01 0.01 0.01 0.01 0.01 0.01 0.01 0.01 0.01 0.00 0.01 0.01 0.01 0.01 0.01 0.00 0.00 0.00 0.00 0.00 0.00 0.00
0.00 0.00 0.00 0.00 0.01 0.02 0.02 0.02 0.03 0.05 0.04 0.07 0.19 0.26 0.15 0.07 0.04 0.03 0.02 0.02 0.03 0.02 0.01 0.00 0.00 0.00 0.01 0.01 0.01 0.01 0.02 0.02 0.02 0.02 0.02 0.01 0.01 0.01 0.01 0.02 0.01 0.01 0.01 0.01 0.00 0.00 0.00 0.00 0.00
0.00 0.00 0.00 0.00 0.01 0.01 0.02 0.01 0.02 0.02 0.05 0.08 0.19 0.20 0.09 0.04 0.04 0.03 0.03 0.02 0.02 0.02 0.01 0.00 0.00 0.00 0.01 0.01 0.01 0.01 0.01 0.03 0.03 0.02 0.02 0.02 0.02 0.02 0.02 0.02 0.01 0.01 0.01 0.01 0.01 0.01 0.00 0.00 0.00
0.00 0.00 0.00 0.01 0.01 0.01 0.01 0.01 0.01 0.03 0.04 0.05 0.12 0.08 0.03 0.03 0.03 0.03 0.04 0.03 0.03 0.03 0.03 0.02 0.01 0.01 0.01 0.01 0.01 0.02 0.01 0.02 0.02 0.02 0.03 0.02 0.02 0.02 0.03 0.03 0.03 0.02 0.02 0.01 0.01 0.01 0.01 0.01 0.01
0.00 0.00 0.00 0.01 0.01 0.01 0.02 0.01 0.01 0.03 0.05 0.08 0.09 0.05 0.03 0.03 0.02 0.03 0.03 0.03 0.04 0.04 0.04 0.04 0.04 0.04 0.03 0.03 0.03 0.03 0.03 0.04 0.04 0.05 0.05 0.04 0.05 0.06 0.06 0.07 0.06 0.04 0.03 0.03 0.02 0.02 0.02 0.01 0.01
0.00 0.00 0.01 0.01 0.01 0.02 0.04 0.05 0.03 0.02 0.05 0.07 0.09 0.08 0.07 0.05 0.04 0.04 0.04 0.05 0.06 0.06 0.06 0.06 0.07 0.08 0.09 0.09 0.09 0.07 0.10 0.08 0.08 0.12 0.12 0.07 0.09 0.10 0.11 0.11 0.11 0.09 0.07 0.05 0.04 0.03 0.02 0.02 0.03
0.00 0.00 0.01 0.01 0.01 0.01 0.02 0.07 0.07 0.05 0.04 0.05 0.08 0.13 0.18 0.11 0.06 0.07 0.07 0.08 0.10 0.07 0.05 0.05 0.07 0.08 0.13 0.13 0.15 0.11 0.13 0.12 0.12 0.15 0.16 0.13 0.11 0.13 0.20 0.22 0.18 0.14 0.10 0.09 0.06 0.04 0.04 0.04 0.07
0.00 0.00 0.01 0.01 0.01 0.01 0.02 0.04 0.07 0.07 0.05 0.03 0.06 0.09 0.17 0.12 0.08 0.09 0.11 0.12 0.13 0.08 0.07 0.08 0.10 0.08 0.11 0.10 0.09 0.08 0.08 0.09 0.09 0.11 0.14 0.16 0.16 0.15 0.20 0.23 0.23 0.20 0.14 0.11 0.07 0.08 0.07 0.08 0.09
0.00 0.00 0.00 0.01 0.00 0.01 0.03 0.03 0.03 0.04 0.03 0.02 0.04 0.06 0.07 0.09 0.14 0.20 0.27 0.25 0.30 0.20 0.12 0.07 0.06 0.06 0.06 0.07 0.06 0.06 0.07 0.10 0.12 0.12 0.13 0.18 0.22 0.20 0.23 0.29 0.26 0.20 0.18 0.17 0.13 0.11 0.09 0.09 0.08
0.00 0.00 0.00 0.00 0.01 0.01 0.01 0.02 0.03 0.05 0.04 0.04 0.05 0.07 0.08 0.13 0.21 0.30 0.39 0.41 0.50 0.39 0.24 0.12 0.07 0.08 0.07 0.05 0.04 0.03 0.04 0.06 0.08 0.09 0.13 0.17 0.21 0.23 0.26 0.28 0.27 0.23 0.19 0.20 0.19 0.14 0.13 0.11 0.09
0.00 0.00 0.00 0.00 0.01 0.01 0.01 0.03 0.04 0.03 0.04 0.05 0.07 0.10 0.11 0.15 0.22 0.20 0.25 0.32 0.39 0.43 0.26 0.16 0.09 0.07 0.07 0.04 0.03 0.03 0.04 0.05 0.06 0.07 0.11 0.14 0.18 0.22 0.27 0.26 0.22 0.20 0.20 0.20 0.19 0.17 0.15 0.13 0.12
0.00 0.00 0.00 0.00 0.01 0.01 0.01 0.02 0.02 0.02 0.03 0.04 0.07 0.14 0.20 0.23 0.23 0.23 0.23 0.23 0.25 0.23 0.17 0.15 0.08 0.04 0.04 0.02 0.02 0.03 0.05 0.06 0.07 0.11 0.15 0.14 0.13 0.15 0.20 0.22 0.16 0.14 0.15 0.13 0.12 0.13 0.11 0.12 0.12
0.00 0.01 0.00 0.00 0.01 0.02 0.01 0.01 0.02 0.03 0.04 0.08 0.10 0.12 0.16 0.21 0.23 0.28 0.25 0.19 0.17 0.13 0.09 0.09 0.07 0.04 0.02 0.02 0.01 0.02 0.05 0.07 0.07 0.09 0.15 0.18 0.18 0.20 0.20 0.21 0.17 0.12 0.11 0.11 0.10 0.11 0.10 0.08 0.09
0.00 0.01 0.01 0.01 0.01 0.02 0.03 0.04 0.04 0.04 0.05 0.08 0.11 0.14 0.17 0.14 0.16 0.27 0.24 0.15 0.17 0.15 0.09 0.05 0.05 0.06 0.04 0.01 0.01 0.03 0.03 0.04 0.04 0.06 0.08 0.11 0.15 0.19 0.18 0.16 0.15 0.14 0.13 0.12 0.10 0.10 0.11 0.10 0.10
0.00 0.00 0.01 0.01 0.02 0.02 0.03 0.05 0.05 0.07 0.07 0.07 0.10 0.13 0.12 0.12 0.12 0.17 0.19 0.13 0.11 0.09 0.06 0.03 0.03 0.04 0.05 0.04 0.03 0.03 0.02 0.02 0.03 0.04 0.05 0.05 0.08 0.13 0.17 0.15 0.14 0.14 0.13 0.14 0.13 0.12 0.12 0.13 0.11
0.00 0.00 0.00 0.01 0.02 0.03 0.03 0.04 0.04 0.08 0.10 0.09 0.11 0.13 0.14 0.11 0.08 0.07 0.10 0.08 0.07 0.07 0.05 0.04 0.04 0.04 0.04 0.04 0.04 0.04 0.03 0.03 0.03 0.04 0.04 0.04 0.04 0.08 0.14 0.16 0.14 0.14 0.15 0.15 0.15 0.14 0.13 0.13 0.12
0.00 0.00 0.00 0.00 0.01 0.02 0.03 0.04 0.06 0.08 0.13 0.13 0.18 0.22 0.23 0.16 0.09 0.08 0.07 0.08 0.06 0.06 0.07 0.06 0.04 0.03 0.04 0.04 0.05 0.05 0.05 0.04 0.04 0.05 0.04 0.04 0.04 0.05 0.10 0.15 0.15 0.14 0.14 0.15 0.14 0.13 0.12 0.14 0.15
0.00 0.00 0.00 0.00 0.00 0.01 0.01 0.02 0.05 0.11 0.13 0.14 0.19 0.19 0.21 0.17 0.11 0.10 0.09 0.07 0.05 0.05 0.05 0.04 0.03 0.04 0.05 0.05 0.07 0.06 0.05 0.04 0.03 0.05 0.06 0.06 0.06 0.07 0.08 0.09 0.10 0.10 0.11 0.12 0.13 0.12 0.11 0.11 0.11
0.00 0.00 0.00 0.01 0.01 0.01 0.01 0.02 0.04 0.06 0.11 0.13 0.13 0.13 0.18 0.18 0.13 0.10 0.09 0.07 0.05 0.05 0.03 0.03 0.03 0.04 0.05 0.07 0.09 0.07 0.05 0.03 0.02 0.04 0.07 0.08 0.09 0.10 0.11 0.11 0.09 0.09 0.10 0.12 0.14 0.12 0.12 0.10 0.09
0.00 0.00 0.01 0.01 0.01 0.01 0.02 0.05 0.06 0.05 0.05 0.06 0.09 0.15 0.20 0.19 0.17 0.15 0.13 0.08 0.05 0.03 0.02 0.02 0.02 0.04 0.05 0.06 0.05 0.05 0.04 0.02 0.02 0.02 0.04 0.06 0.05 0.06 0.08 0.08 0.06 0.06 0.06 0.07 0.08 0.08 0.07 0.07 0.06
0.00 0.00 0.01 0.01 0.01 0.01 0.02 0.04 0.08 0.06 0.05 0.05 0.07 0.14 0.21 0.18 0.14 0.10 0.08 0.06 0.04 0.02 0.01 0.01 0.01 0.02 0.04 0.05 0.04 0.03 0.03 0.02 0.02 0.02 0.03 0.03 0.03 0.03 0.03 0.03 0.03 0.02 0.01 0.02 0.03 0.04 0.03 0.02 0.03
0.00 0.01 0.01 0.01 0.01 0.02 0.04 0.06 0.11 0.11 0.15 0.10 0.07 0.11 0.13 0.09 0.07 0.05 0.03 0.03 0.03 0.02 0.01 0.01 0.01 0.02 0.03 0.04 0.03 0.02 0.02 0.02 0.02 0.02 0.02 0.01 0.01 0.01 0.02 0.01 0.01 0.01 0.01 0.01 0.01 0.01 0.01 0.01 0.01
0.01 0.01 0.01 0.02 0.04 0.05 0.06 0.09 0.11 0.12 0.14 0.19 0.15 0.10 0.09 0.08 0.10 0.08 0.05 0.05 0.03 0.02 0.01 0.01 0.01 0.01 0.01 0.01 0.02 0.01 0.01 0.02 0.02 0.01 0.01 0.00 0.00 0.01 0.01 0.01 0.01 0.01 0.01 0.01 0.01 0.01 0.01 0.01 0.01
0.02 0.02 0.01 0.02 0.05 0.07 0.08 0.08 0.10 0.12 0.14 0.25 0.25 0.18 0.14 0.13 0.12 0.09 0.08 0.06 0.04 0.02 0.02 0.02 0.01 0.01 0.01 0.01 0.01 0.02 0.01 0.02 0.01 0.01 0.00 0.00 0.00 0.00 0.00 0.00 0.01 0.00 0.01 0.01 0.01 0.01 0.01 0.01 0.02
0.02 0.02 0.02 0.02 0.03 0.05 0.06 0.07 0.08 0.10 0.16 0.19 0.21 0.19 0.16 0.16 0.13 0.10 0.08 0.05 0.04 0.04 0.03 0.01 0.01 0.01 0.01 0.01 0.01 0.02 0.01 0.01 0.01 0.00 0.00 0.00 0.00 0.00 0.00 0.00 0.01 0.00 0.00 0.00 0.01 0.01 0.01 0.02 0.02
MSLP
1011.39 1012.28 1013.32 1014.31 1015.05 1015.41 1015.32 1014.83 1014.09 1013.28 1012.60 1012.21 1012.15 1012.42 1012.91 1013.47 1013.95 1014.23 1014.29 1014.16 1013.94 1013.76 1013.72 1013.91 1014.31 1014.88 1015.49 1016.05 1016.47 1016.70 1016.76 1016.70 1016.61 1016.58 1016.64 1016.81 1017.06 1017.33 1017.57 1017.74 1017.81 1017.82 1017.80 1017.80 1017.86 1018.00 1018.19 1018.41 1018.61
1011.95 1012.96 1014.03 1014.93 1015.49 1015.62 1015.28 1014.58 1013.67 1012.76 1012.04 1011.64 1011.61 1011.90 1012.40 1012.95 1013.41 1013.69 1013.76 1013.67 1013.52 1013.44 1013.53 1013.83 1014.33 1014.97 1015.64 1016.23 1016.68 1016.93 1017.02 1017.00 1016.94 1016.93 1017.00 1017.15 1017.36 1017.57 1017.74 1017.84 1017.86 1017.84 1017.80 1017.80 1017.87 1018.01 1018.21 1018.42 1018.61
1012.67 1013.76 1014.79 1015.57 1015.94 1015.85 1015.31 1014.44 1013.43 1012.48 1011.78 1011.42 1011.43 1011.74 1012.24 1012.77 1013.19 1013.43 1013.49 1013.42 1013.32 1013.31 1013.47 1013.85 1014.41 1015.09 1015.78 1016.38 1016.82 1017.08 1017.19 1017.20 1017.17 1017.18 1017.25 1017.38 1017.54 1017.70 1017.82 1017.87 1017.86 1017.82 1017.79 1017.81 1017.89 1018.04 1018.23 1018.43 1018.60
1013.46 1014.57 1015.53 1016.16 1016.34 1016.06 1015.37 1014.41 1013.38 1012.46 1011.82 1011.54 1011.61 1011.95 1012.43 1012.91 1013.28 1013.46 1013.49 1013.41 1013.35 1013.38 1013.59 1014.00 1014.58 1015.25 1015.92 1016.49 1016.91 1017.16 1017.27 1017.29 1017.28 1017.30 1017.37 1017.49 1017.62 1017.74 1017.82 1017.85 1017.84 1017.82 1017.82 1017.87 1017.98 1018.14 1018.32 1018.49 1018.63
1014.24 1015.29 1016.12 1016.59 1016.60 1016.18 1015.41 1014.44 1013.45 1012.63 1012.10 1011.91 1012.04 1012.39 1012.84 1013.26 1013.56 1013.68 1013.67 1013.60 1013.55 1013.61 1013.85 1014.27 1014.84 1015.46 1016.07 1016.58 1016.94 1017.16 1017.25 1017.28 1017.29 1017.32 1017.40 1017.50 1017.62 1017.72 1017.79 1017.82 1017.83 1017.85 1017.90 1018.00 1018.14 1018.32 1018.49 1018.64 1018.75
1014.87 1015.80 1016.46 1016.75 1016.62 1016.10 1015.31 1014.40 1013.52 1012.84 1012.45 1012.37 1012.55 1012.90 1013.30 1013.64 1013.87 1013.94 1013.91 1013.84 1013.82 1013.93 1014.19 1014.61 1015.13 1015.70 1016.22 1016.64 1016.93 1017.10 1017.18 1017.20 1017.23 1017.28 1017.36 1017.47 1017.59 1017.68 1017.75 1017.80 1017.85 1017.92 1018.02 1018.17 1018.36 1018.55 1018.73 1018.85 1018.92
1015.26 1016.01 1016.47 1016.57 1016.31 1015.75 1015.00 1014.19 1013.47 1012.96 1012.71 1012.72 1012.94 1013.27 1013.61 1013.89 1014.04 1014.08 1014.06 1014.03 1014.07 1014.22 1014.52 1014.93 1015.42 1015.91 1016.34 1016.67 1016.89 1017.01 1017.07 1017.10 1017.14 1017.22 1017.32 1017.44 1017.55 1017.65 1017.73 1017.80 1017.88 1018.00 1018.15 1018.35 1018.57 1018.78 1018.95 1019.06 1019.11
1015.37 1015.89 1016.13 1016.05 1015.69 1015.12 1014.43 1013.76 1013.22 1012.88 1012.77 1012.86 1013.10 1013.40 1013.68 1013.89 1014.00 1014.04 1014.04 1014.08 1014.20 1014.43 1014.77 1015.19 1015.64 1016.06 1016.41 1016.66 1016.81 1016.89 1016.94 1016.99 1017.07 1017.17 1017.30 1017.43 1017.55 1017.65 1017.73 1017.81 1017.91 1018.05 1018.24 1018.47 1018.71 1018.94 1019.11 1019.20 1019.22
1015.23 1015.50 1015.51 1015.28 1014.84 1014.27 1013.68 1013.16 1012.78 1012.61 1012.62 1012.77 1013.01 1013.27 1013.50 1013.65 1013.74 1013.80 1013.87 1014.00 1014.22 1014.53 1014.93 1015.36 1015.78 1016.14 1016.42 1016.60 1016.71 1016.77 1016.83 1016.90 1017.02 1017.16 1017.32 1017.47 1017.59 1017.68 1017.75 1017.82 1017.92 1018.06 1018.26 1018.50 1018.74 1018.97 1019.13 1019.22 1019.23
1014.92 1014.95 1014.76 1014.38 1013.88 1013.34 1012.85 1012.47 1012.26 1012.22 1012.32 1012.52 1012.76 1012.98 1013.15 1013.28 1013.37 1013.47 1013.61 1013.84 1014.16 1014.56 1015.00 1015.44 1015.83 1016.14 1016.36 1016.49 1016.57 1016.64 1016.72 1016.84 1017.00 1017.19 1017.38 1017.55 1017.67 1017.74 1017.78 1017.83 1017.90 1018.02 1018.20 1018.42 1018.65 1018.86 1019.02 1019.10 1019.11
1014.56 1014.39 1014.02 1013.53 1012.99 1012.49 1012.10 1011.86 1011.78 1011.85 1012.02 1012.24 1012.46 1012.65 1012.79 1012.90 1013.01 1013.16 1013.38 1013.70 1014.10 1014.56 1015.03 1015.46 1015.82 1016.08 1016.24 1016.34 1016.41 1016.49 1016.61 1016.79 1017.00 1017.24 1017.46 1017.63 1017.75 1017.80 1017.82 1017.83 1017.87 1017.95 1018.09 1018.28 1018.48 1018.67 1018.80 1018.88 1018.89
1014.29 1013.95 1013.45 1012.88 1012.33 1011.88 1011.57 1011.44 1011.46 1011.61 1011.83 1012.06 1012.27 1012.43 1012.55 1012.65 1012.79 1012.99 1013.28 1013.65 1014.10 1014.58 1015.04 1015.45 1015.75 1015.96 1016.08 1016.16 1016.24 1016.34 1016.50 1016.73 1017.00 1017.27 1017.52 1017.70 1017.81 1017.85 1017.84 1017.83 1017.83 1017.87 1017.97 1018.12 1018.28 1018.43 1018.55 1018.61 1018.63
1014.18 1013.73 1013.14 1012.53 1011.98 1011.57 1011.34 1011.29 1011.39 1011.59 1011.83 1012.06 1012.24 1012.38 1012.49 1012.61 1012.77 1013.00 1013.33 1013.73 1014.19 1014.65 1015.07 1015.41 1015.66 1015.81 1015.90 1015.96 1016.04 1016.18 1016.38 1016.65 1016.95 1017.26 1017.52 1017.71 1017.82 1017.85 1017.84 1017.81 1017.79 1017.82 1017.88 1017.99 1018.11 1018.23 1018.32 1018.37 1018.39
1014.27 1013.74 1013.11 1012.48 1011.95 1011.59 1011.41 1011.42 1011.56 1011.78 1012.01 1012.22 1012.39 1012.51 1012.62 1012.74 1012.92 1013.18 1013.52 1013.92 1014.34 1014.75 1015.10 1015.36 1015.54 1015.64 1015.70 1015.76 1015.85 1016.02 1016.25 1016.54 1016.86 1017.17 1017.44 1017.63 1017.74 1017.79 1017.79 1017.77 1017.76 1017.79 1017.84 1017.93 1018.02 1018.11 1018.17 1018.21 1018.22
1014.50 1013.93 1013.27 1012.66 1012.16 1011.84 1011.71 1011.74 1011.88 1012.09 1012.30 1012.47 1012.61 1012.72 1012.82 1012.96 1013.15 1013.41 1013.74 1014.11 1014.48 1014.81 1015.08 1015.27 1015.39 1015.45 1015.49 1015.56 1015.68 1015.87 1016.12 1016.42 1016.73 1017.03 1017.27 1017.46 1017.57 1017.64 1017.67 1017.69 1017.72 1017.77 1017.84 1017.92 1018.00 1018.06 1018.10 1018.12 1018.13
1014.76 1014.17 1013.53 1012.94 1012.49 1012.21 1012.10 1012.13 1012.25 1012.41 1012.57 1012.69 1012.78 1012.86 1012.96 1013.10 1013.31 1013.57 1013.88 1014.21 1014.53 1014.79 1014.99 1015.12 1015.20 1015.24 1015.30 1015.40 1015.55 1015.76 1016.01 1016.30 1016.58 1016.84 1017.04 1017.20 1017.31 1017.40 1017.47 1017.54 1017.63 1017.72 1017.83 1017.93 1018.00 1018.06 1018.08 1018.09 1018.09
1014.95 1014.36 1013.75 1013.22 1012.83 1012.59 1012.50 1012.51 1012.58 1012.66 1012.73 1012.77 1012.81 1012.85 1012.93 1013.08 1013.29 1013.56 1013.86 1014.16 1014.42 1014.64 1014.79 1014.90 1014.97 1015.03 1015.13 1015.27 1015.46 1015.69 1015.95 1016.20 1016.43 1016.63 1016.78 1016.89 1016.99 1017.09 1017.20 1017.32 1017.47 1017.63 1017.78 1017.90 1017.99 1018.04 1018.06 1018.07 1018.08
1014.97 1014.41 1013.87 1013.43 1013.11 1012.93 1012.84 1012.82 1012.82 1012.80 1012.75 1012.69 1012.63 1012.62 1012.68 1012.82 1013.04 1013.31 1013.61 1013.90 1014.15 1014.35 1014.50 1014.61 1014.71 1014.82 1014.98 1015.18 1015.42 1015.68 1015.93 1016.15 1016.32 1016.44 1016.52 1016.59 1016.65 1016.75 1016.88 1017.06 1017.26 1017.47 1017.65 1017.80 1017.91 1017.96 1017.99 1018.01 1018.03
1014.81 1014.31 1013.88 1013.55 1013.34 1013.23 1013.16 1013.09 1012.99 1012.84 1012.66 1012.46 1012.30 1012.21 1012.23 1012.36 1012.58 1012.87 1013.19 1013.49 1013.75 1013.96 1014.13 1014.27 1014.43 1014.62 1014.85 1015.13 1015.43 1015.72 1015.97 1016.15 1016.27 1016.32 1016.33 1016.33 1016.36 1016.44 1016.59 1016.78 1017.01 1017.25 1017.46 1017.63 1017.74 1017.81 1017.85 1017.88 1017.94
1014.49 1014.11 1013.83 1013.66 1013.59 1013.55 1013.50 1013.39 1013.19 1012.89 1012.55 1012.19 1011.90 1011.72 1011.68 1011.78 1012.01 1012.32 1012.66 1012.99 1013.28 1013.53 1013.74 1013.94 1014.16 1014.43 1014.75 1015.10 1015.45 1015.78 1016.04 1016.20 1016.28 1016.28 1016.23 1016.18 1016.17 1016.23 1016.36 1016.55 1016.78 1017.02 1017.24 1017.40 1017.52 1017.59 1017.64 1017.71 1017.81
1014.12 1013.90 1013.82 1013.84 1013.93 1014.00 1013.98 1013.82 1013.51 1013.06 1012.53 1012.01 1011.57 1011.27 1011.16 1011.23 1011.45 1011.78 1012.14 1012.51 1012.84 1013.12 1013.38 1013.64 1013.92 1014.26 1014.64 1015.06 1015.47 1015.83 1016.11 1016.28 1016.34 1016.31 1016.24 1016.16 1016.12 1016.15 1016.25 1016.43 1016.64 1016.85 1017.03 1017.18 1017.28 1017.35 1017.42 1017.52 1017.67
1013.81 1013.80 1013.94 1014.19 1014.44 1014.62 1014.64 1014.44 1014.02 1013.41 1012.71 1012.01 1011.42 1011.00 1010.79 1010.81 1011.02 1011.35 1011.73 1012.12 1012.48 1012.80 1013.10 1013.40 1013.73 1014.11 1014.54 1015.00 1015.46 1015.86 1016.16 1016.36 1016.43 1016.41 1016.34 1016.26 1016.22 1016.23 1016.31 1016.44 1016.61 1016.77 1016.92 1017.02 1017.09 1017.16 1017.24 1017.37 1017.56
1013.66 1013.88 1014.26 1014.72 1015.15 1015.44 1015.48 1015.24 1014.73 1013.98 1013.11 1012.25 1011.50 1010.96 1010.66 1010.61 1010.78 1011.09 1011.48 1011.89 1012.26 1012.60 1012.91 1013.23 1013.58 1013.98 1014.43 1014.92 1015.40 1015.83 1016.17 1016.40 1016.52 1016.54 1016.51 1016.46 1016.43 1016.45 1016.51 1016.61 1016.73 1016.84 1016.92 1016.98 1017.02 1017.07 1017.15 1017.30 1017.52
1013.72 1014.15 1014.75 1015.41 1015.99 1016.36 1016.44 1016.17 1015.57 1014.71 1013.70 1012.70 1011.82 1011.15 1010.76 1010.64 1010.76 1011.04 1011.40 1011.80 1012.17 1012.50 1012.82 1013.13 1013.48 1013.88 1014.33 1014.82 1015.30 1015.75 1016.13 1016.41 1016.58 1016.67 1016.70 1016.71 1016.72 1016.76 1016.82 1016.90 1016.97 1017.03 1017.06 1017.07 1017.07 1017.10 1017.18 1017.34 1017.57
1013.97 1014.58 1015.35 1016.15 1016.84 1017.28 1017.38 1017.09 1016.44 1015.49 1014.40 1013.30 1012.32 1011.56 1011.07 1010.87 1010.92 1011.14 1011.47 1011.83 1012.17 1012.50 1012.80 1013.10 1013.44 1013.82 1014.26 1014.73 1015.21 1015.67 1016.07 1016.38 1016.61 1016.77 1016.87 1016.94 1017.01 1017.08 1017.16 1017.23 1017.29 1017.31 1017.30 1017.28 1017.25 1017.26 1017.33 1017.48 1017.70
1014.33 1015.07 1015.94 1016.82 1017.57 1018.04 1018.15 1017.86 1017.19 1016.23 1015.10 1013.96 1012.92 1012.10 1011.54 1011.26 1011.22 1011.37 1011.63 1011.94 1012.25 1012.55 1012.84 1013.13 1013.46 1013.83 1014.25 1014.71 1015.17 1015.62 1016.02 1016.36 1016.62 1016.83 1016.99 1017.12 1017.24 1017.36 1017.47 1017.55 1017.61 1017.62 1017.60 1017.56 1017.52 1017.52 1017.57 1017.70 1017.88
1014.71 1015.49 1016.39 1017.28 1018.04 1018.52 1018.64 1018.37 1017.74 1016.82 1015.73 1014.61 1013.58 1012.73 1012.12 1011.76 1011.63 1011.68 1011.86 1012.09 1012.36 1012.64 1012.92 1013.22 1013.56 1013.93 1014.35 1014.79 1015.23 1015.65 1016.04 1016.36 1016.63 1016.86 1017.05 1017.22 1017.39 1017.54 1017.68 1017.80 1017.88 1017.91 1017.90 1017.87 1017.84 1017.84 1017.88 1017.97 1018.10
1015.01 1015.76 1016.61 1017.45 1018.16 1018.63 1018.78 1018.57 1018.04 1017.23 1016.25 1015.22 1014.25 1013.41 1012.77 1012.34 1012.11 1012.05 1012.12 1012.27 1012.48 1012.73 1013.02 1013.35 1013.72 1014.13 1014.56 1015.00 1015.42 1015.81 1016.15 1016.43 1016.67 1016.87 1017.06 1017.24 1017.43 1017.61 1017.79 1017.94 1018.06 1018.14 1018.17 1018.18 1018.17 1018.18 1018.21 1018.27 1018.34
1015.15 1015.81 1016.55 1017.30 1017.94 1018.39 1018.57 1018.47 1018.09 1017.46 1016.67 1015.80 1014.94 1014.16 1013.50 1013.00 1012.66 1012.46 1012.40 1012.45 1012.59 1012.82 1013.13 1013.50 1013.93 1014.39 1014.86 1015.32 1015.73 1016.08 1016.36 1016.58 1016.75 1016.90 1017.04 1017.20 1017.39 1017.59 1017.80 1018.00 1018.17 1018.30 1018.40 1018.45 1018.49 1018.52 1018.55 1018.58 1018.60
1015.15 1015.66 1016.26 1016.88 1017.44 1017.88 1018.12 1018.16 1017.97 1017.57 1017.02 1016.36 1015.65 1014.95 1014.29 1013.72 1013.26 1012.91 1012.70 1012.63 1012.69 1012.89 1013.21 1013.64 1014.14 1014.68 1015.21 1015.70 1016.11 1016.43 1016.66 1016.80 1016.89 1016.96 1017.04 1017.16 1017.32 1017.52 1017.76 1018.00 1018.23 1018.43 1018.59 1018.71 1018.80 1018.86 1018.90 1018.91 1018.88
Thickness
5815 5818 5817 5806 5782 5759 5759 5779 5801 5810 5815 5825 5829 5821 5809 5801 5791 5781 5804 5811 5808 5802 5797 5794 5791 5788 5785 5783 5780 5778 5776 5774 5772 5771 5769 5767 5765 5764 5762 5760 5758 5757 5755 5753 5751 5750 5748 5747 5745
5814 5816 5807 5789 5762 5745 5757 5786 5801 5812 5820 5828 5826 5819 5810 5803 5808 5804 5804 5806 5806 5801 5796 5792 5789 5786 5783 5780 5778 5775 5773 5771 5769 5768 5766 5764 5763 5761 5759 5758 5756 5754 5753 5751 5749 5747 5746 5745 5744
5812 5811 5790 5772 5758 5751 5769 5794 5806 5817 5825 5825 5815 5814 5806 5800 5805 5805 5806 5806 5802 5798 5794 5790 5787 5784 5781 5778 5775 5773 5770 5768 5766 5764 5763 5761 5760 5758 5756 5755 5753 5752 5750 5749 5747 5745 5744 5743 5742
5804 5793 5781 5763 5760 5770 5784 5798 5808 5811 5816 5817 5811 5799 5801 5809 5811 5809 5806 5803 5799 5794 5791 5788 5784 5781 5778 5775 5772 5770 5767 5765 5763 5761 5760 5758 5757 5755 5754 5752 5751 5749 5748 5746 5744 5743 5742 5741 5740
5795 5777 5763 5752 5761 5780 5798 5808 5812 5807 5805 5806 5805 5789 5789 5804 5811 5807 5803 5799 5795 5790 5787 5784 5780 5777 5774 5772 5769 5767 5764 5762 5760 5758 5756 5755 5753 5752 5751 5749 5748 5746 5745 5744 5742 5741 5740 5739 5738
5776 5765 5747 5743 5761 5784 5800 5810 5811 5805 5800 5801 5798 5787 5784 5798 5801 5799 5798 5794 5791 5786 5782 5779 5776 5773 5770 5768 5766 5763 5761 5759 5757 5754 5752 5750 5749 5748 5747 5746 5745 5744 5742 5741 5740 5738 5737 5737 5736
5767 5756 5749 5755 5761 5775 5797 5810 5806 5800 5794 5796 5800 5784 5782 5791 5797 5797 5793 5789 5784 5782 5778 5774 5771 5768 5766 5764 5762 5759 5757 5755 5753 5751 5749 5747 5745 5744 5743 5742 5742 5741 5740 5738 5737 5736 5735 5734 5734
5775 5758 5752 5753 5761 5770 5796 5805 5805 5800 5793 5802 5800 5782 5776 5787 5795 5793 5786 5782 5778 5775 5773 5770 5767 5764 5761 5759 5757 5755 5753 5751 5749 5747 5745 5743 5741 5740 5739 5738 5738 5737 5737 5735 5734 5733 5732 5731 5731
5781 5749 5739 5753 5762 5771 5790 5794 5799 5802 5797 5796 5797 5794 5791 5791 5790 5784 5776 5772 5770 5768 5767 5765 5763 5760 5757 5755 5753 5750 5748 5746 5745 5743 5741 5739 5737 5736 5735 5734 5734 5733 5732 5732 5731 5730 5729 5729 5728
5765 5740 5751 5771 5777 5777 5784 5789 5791 5788 5782 5782 5785 5789 5789 5786 5781 5775 5769 5765 5762 5760 5760 5760 5758 5756 5754 5752 5749 5746 5744 5742 5741 5739 5736 5734 5733 5731 5730 5730 5729 5729 5728 5728 5727 5726 5726 5726 5725
5766 5756 5768 5779 5786 5784 5781 5784 5790 5780 5770 5778 5779 5778 5779 5776 5772 5768 5765 5762 5759 5757 5756 5755 5754 5753 5750 5747 5744 5742 5740 5738 5736 5735 5732 5730 5728 5727 5726 5725 5725 5724 5724 5723 5723 5723 5722 5722 5722
5765 5769 5775 5779 5787 5784 5782 5781 5777 5778 5777 5786 5787 5782 5776 5769 5764 5762 5759 5756 5753 5751 5750 5750 5751 5749 5746 5743 5741 5739 5736 5735 5733 5730 5728 5726 5724 5722 5721 5720 5720 5720 5720 5719 5719 5719 5719 5719 5719
5762 5767 5777 5783 5781 5782 5781 5775 5772 5769 5779 5781 5779 5774 5768 5763 5759 5756 5754 5751 5749 5745 5744 5744 5745 5745 5742 5739 5737 5736 5734 5731 5729 5726 5724 5722 5720 5718 5717 5716 5716 5716 5715 5715 5715 5716 5715 5715 5716
5764 5767 5772 5778 5779 5779 5773 5767 5764 5761 5771 5768 5764 5760 5759 5756 5754 5749 5743 5741 5741 5739 5739 5740 5740 5740 5738 5735 5733 5732 5730 5727 5724 5721 5719 5718 5716 5715 5713 5713 5712 5712 5711 5711 5710 5711 5711 5711 5712
5768 5760 5761 5770 5774 5771 5768 5751 5754 5761 5761 5756 5753 5752 5750 5747 5747 5744 5739 5738 5736 5733 5732 5733 5734 5733 5732 5730 5728 5727 5724 5722 5719 5716 5714 5713 5712 5711 5710 5709 5708 5708 5708 5707 5706 5706 5707 5707 5708
5756 5746 5737 5756 5767 5769 5757 5732 5748 5757 5754 5746 5745 5744 5741 5739 5737 5737 5736 5735 5733 5731 5728 5729 5730 5728 5725 5724 5722 5721 5719 5717 5714 5711 5710 5708 5707 5706 5705 5704 5703 5704 5703 5702 5702 5702 5702 5702 5702
5730 5724 5728 5742 5760 5761 5750 5733 5746 5751 5748 5740 5738 5736 5734 5732 5732 5732 5732 5730 5728 5727 5726 5724 5723 5723 5719 5718 5717 5715 5714 5711 5708 5705 5704 5702 5701 5701 5700 5699 5699 5699 5698 5698 5699 5698 5697 5696 5697
5715 5722 5727 5731 5749 5751 5741 5735 5741 5745 5742 5735 5732 5730 5728 5727 5725 5726 5726 5724 5724 5722 5721 5719 5717 5716 5713 5711 5710 5709 5707 5705 5702 5700 5698 5696 5695 5695 5694 5694 5694 5693 5692 5691 5692 5692 5693 5692 5693
5725 5723 5721 5732 5749 5744 5736 5732 5734 5738 5735 5729 5726 5726 5723 5722 5722 5722 5721 5720 5718 5716 5714 5712 5710 5708 5706 5705 5703 5701 5699 5698 5696 5694 5692 5691 5689 5689 5688 5688 5687 5687 5687 5686 5686 5687 5687 5687 5688
5727 5720 5720 5731 5746 5741 5728 5725 5731 5733 5730 5729 5726 5723 5720 5715 5712 5714 5714 5713 5710 5709 5708 5706 5704 5702 5702 5700 5698 5696 5695 5692 5690 5687 5685 5685 5683 5683 5683 5682 5681 5682 5682 5681 5681 5681 5680 5681 5682
5726 5722 5722 5724 5735 5737 5726 5714 5719 5724 5725 5724 5723 5722 5719 5715 5710 5709 5708 5706 5704 5702 5701 5700 5698 5697 5696 5695 5693 5690 5687 5685 5682 5680 5679 5678 5678 5677 5677 5676 5676 5677 5677 5676 5675 5675 5675 5674 5676
5717 5735 5734 5729 5715 5704 5714 5688 5705 5714 5713 5713 5712 5713 5713 5712 5709 5707 5704 5701 5699 5697 5695 5693 5692 5690 5690 5688 5686 5683 5678 5674 5674 5673 5673 5673 5672 5672 5671 5670 5670 5670 5670 5671 5670 5670 5670 5669 5669
5730 5740 5734 5727 5712 5698 5699 5686 5689 5703 5701 5705 5709 5710 5709 5708 5706 5703 5700 5697 5694 5692 5689 5687 5685 5683 5682 5681 5679 5675 5672 5670 5668 5668 5667 5666 5666 5666 5665 5664 5663 5663 5664 5664 5664 5664 5664 5664 5664
5738 5729 5719 5707 5694 5677 5688 5683 5680 5690 5699 5705 5708 5709 5706 5704 5702 5697 5694 5691 5687 5685 5682 5680 5677 5675 5674 5672 5670 5668 5665 5663 5661 5659 5658 5658 5658 5658 5658 5657 5656 5657 5658 5658 5658 5658 5658 5658 5659
5723 5697 5675 5672 5663 5667 5688 5681 5680 5699 5707 5708 5706 5704 5702 5700 5696 5692 5686 5683 5680 5678 5675 5672 5670 5667 5666 5664 5662 5660 5658 5656 5654 5652 5650 5649 5649 5649 5650 5651 5650 5650 5650 5652 5652 5651 5652 5653 5653
5711 5696 5668 5658 5656 5663 5678 5674 5685 5700 5705 5708 5704 5699 5695 5691 5689 5686 5682 5677 5674 5671 5668 5665 5662 5659 5657 5656 5653 5652 5650 5648 5646 5645 5643 5643 5642 5642 5643 5643 5643 5643 5644 5645 5645 5645 5646 5646 5647
5703 5692 5691 5670 5665 5657 5664 5676 5687 5696 5695 5694 5694 5691 5687 5685 5681 5679 5675 5670 5667 5663 5661 5658 5654 5651 5649 5648 5645 5643 5641 5639 5638 5637 5636 5635 5635 5636 5636 5636 5636 5636 5637 5638 5638 5638 5638 5639 5639
5706 5697 5677 5664 5652 5647 5658 5664 5667 5680 5683 5684 5683 5681 5678 5676 5672 5669 5667 5663 5659 5656 5653 5650 5647 5644 5642 5640 5638 5636 5633 5631 5630 5629 5627 5627 5627 5628 5628 5629 5629 5629 5630 5630 5630 5630 5630 5631 5632
5691 5687 5674 5660 5657 5646 5640 5653 5681 5680 5681 5678 5676 5676 5672 5668 5665 5660 5657 5655 5651 5648 5645 5642 5638 5635 5633 5631 5629 5626 5624 5623 5622 5620 5620 5620 5620 5620 5621 5621 5621 5621 5622 5622 5622 5622 5623 5623 5623
5692 5683 5670 5654 5650 5649 5643 5652 5681 5680 5679 5676 5673 5670 5667 5664 5659 5655 5651 5647 5643 5640 5636 5633 5630 5627 5625 5623 5620 5618 5616 5614 5613 5612 5612 5612 5612 5613 5613 5613 5613 5613 5614 5614 5614 5614 5615 5615 5615